sat.trackr.live / text

‹ back to catalog

STARLINK-2672

NORAD 48650 · 2021-044N

PAYLOAD ACTIVE UNKNOWN

§ Identity

Operator
Country
US
Launch date
2021-05-26
Launch site
AFETR
Launch vehicle
Mass (kg)
RCS (m²)

Purposes: comms

External: N2YO · Heavens-Above · Gunter

§ Orbital elements

Epoch: 2026-09-12T05:24:58.263840Z

Period
94.01 min
Inclination
53.1606°
Eccentricity
0.0001152
Mean motion
15.31698576 rev/d
Perigee alt
470.0 km
Apogee alt
471.5 km
Semi-major
6,848.9 km
B*
8.5705e-5
RAAN
325.8567°
Arg perigee
77.7094°
Mean anomaly
282.4037°
Rev number
29,240

§ Raw data

STARLINK-26721 48650U 21044N   26255.22567435  .00002295  00000+0  85705-4 0  99942 48650  53.1606 325.8567 0001152  77.7094 282.4037 15.31698576292409

JSON: /api/v1/satellites/48650 · /tle

For live sub-satellite position, see the globe view (requires WebGL).

§ Visibility from observer

Set your observer location to see the next 7 days of passes ≥ 10°. The values pass through the URL so the page stays shareable.

No JS? Fill the form by hand. The geolocation button needs JavaScript.